Regional Weather Roundup
Issued by NWS

Home | Current Version | Previous Version | Graphics & Text | Print | Product List | Glossary On
Versions: 1 2 3 4 5 6 7 8 9 10 11 12 13 14 15 16 17 18 19 20 21 22 23 24 25 26 27 28 29 30 31 32 33 34 35 36 37 38 39 40 41 42 43 44 45 46 47 48 49 50
000
ASUS43 KBIS 290210
RWRND

NORTH DAKOTA REGIONAL WEATHER ROUNDUP
NATIONAL WEATHER SERVICE BISMARCK ND
900 PM CDT TUE MAR 28 2017

NOTE: "FAIR" INDICATES FEW OR NO CLOUDS BELOW 12,000 FEET WITH NO
SIGNIFICANT WEATHER AND/OR OBSTRUCTIONS TO VISIBILITY.


NDZ001>003-009>011-017-290300-
NORTHWEST NORTH DAKOTA

CITY           SKY/WX    TMP DP  RH WIND       PRES   REMARKS
WILLISTON      CLOUDY    43  41  93 CALM      30.08F
MINOT          CLOUDY    47  42  83 E8        30.09S
MINOT AFB      CLOUDY    44  42  90 SE9       30.09R
$$

NDZ018>021-031>035-040>046-290300-
SOUTHWEST NORTH DAKOTA

CITY           SKY/WX    TMP DP  RH WIND       PRES   REMARKS
BISMARCK       FAIR      50  38  63 SE10      30.14R
DICKINSON      RAIN      44  42  93 N6        30.09R FOG
GARRISON         N/A     44  38  79 SE15      30.09R
HETTINGER ARPT MOCLDY    47  40  76 S8        30.11S
$$

NDZ004>008-012>016-024-026-027-054-290300-
NORTHEAST NORTH DAKOTA

CITY           SKY/WX    TMP DP  RH WIND       PRES   REMARKS
GRAND FORKS    MOCLDY    40  39  97 N8        30.21R
GRND FRKS AFB  PTCLDY    37  36  93 NE6       30.21S
DEVILS LAKE    FAIR      41  38  89 SE9       30.18S
$$

NDZ022-023-025-028>030-036>039-047>053-290300-
SOUTHEAST NORTH DAKOTA

CITY           SKY/WX    TMP DP  RH WIND       PRES   REMARKS
FARGO          PTCLDY    47  40  76 N3        30.19R
JAMESTOWN      FAIR      45  38  76 E8        30.18R
$$





USA.gov is the U.S. government's official web portal to all federal, state and local government web resources and services.